Driggs, ID

6:48 PM MST on February 20, 2018 (GMT -0700)
Driggs

Weather History for KDIJ - August, 2013

Change the Weather History Date:

Monday, August 26, 2013

  Actual Average (KJAC) Record (KJAC)
Temperature  
Mean Temperature 66 °F -  
Max Temperature 77 °F 76 °F 89 °F (1988)
Min Temperature 55 °F 37 °F 22 °F (1992)
Cooling Degree Days 1    
Growing Degree Days 16 (Base 50)    
Moisture  
Dew Point 50 °F    
Average Humidity 62    
Maximum Humidity 88    
Minimum Humidity 36    
Precipitation  
Precipitation 0.11 in - - ()
Sea Level Pressure  
Sea Level Pressure 30.03 in    
Wind  
Wind Speed 7 mph (SSW)    
Max Wind Speed 13 mph    
Max Gust Speed -    
Visibility 9 miles    
Events Rain , Thunderstorm    
Averages and records for this station are not official NWS values.
T = Trace of Precipitation, MM = Missing Value Source: NWS Daily Summary

Daily Weather History Graph

Daily Weather History Graph

Search for Another Location

Airport or City:

Trip Planner

Search our weather history database for the weather conditions in past years. The results will help you decide how hot, cold, wet, or windy it might be!

Date:

Astronomy

Aug. 26, 2013 Rise Set
Actual Time 6:41 AM MDT 8:09 PM MDT
Civil Twilight 6:11 AM MDT 8:39 PM MDT
Nautical Twilight 5:35 AM MDT 9:15 PM MDT
Astronomical Twilight 4:56 AM MDT 9:54 PM MDT
Moon 11:09 PM MDT (8/26) 1:00 PM MDT (8/26)
Length of Visible Light 14h 28m
Length of Day
13h 28m
Waning Gibbous, 66% of the Moon is Illuminated
Aug 26
Waning Gibbous
Aug 28
Last Quarter
Sep 5
New
Sep 12
First Quarter
Sep 19
Full

Hourly Weather History & Observations

Time (MDT) Temp. Dew Point Humidity Pressure Visibility Wind Dir Wind Speed Gust Speed Precip Events Conditions
12:56 AM 63.9 °F 41.9 °F 45% 29.91 in 10.0 mi South 4.6 mph - N/A   Clear
1:56 AM 64.9 °F 43.0 °F 45% 29.94 in 10.0 mi SW 11.5 mph - N/A   Overcast
2:56 AM 63.0 °F 45.9 °F 54% 29.91 in 10.0 mi ESE 6.9 mph - N/A   Scattered Clouds
3:56 AM 59.9 °F 46.9 °F 62% 29.94 in 10.0 mi ENE 8.1 mph - N/A   Mostly Cloudy
4:56 AM 56.8 °F 45.9 °F 67% 29.96 in 9.0 mi SE 6.9 mph - N/A   Clear
5:23 AM 57.2 °F 48.2 °F 72% 30.24 in 9.0 mi West 6.9 mph - N/A Thunderstorm Thunderstorm
5:44 AM 57.2 °F 51.8 °F 82% 30.25 in 5.0 mi WSW 6.9 mph - 0.02 in Rain Rain
5:49 AM 57.2 °F 51.8 °F 82% 30.26 in 2.5 mi WSW 5.8 mph - 0.05 in Rain Rain
5:56 AM 56.8 °F 52.9 °F 87% 29.98 in 1.8 mi SSW 6.9 mph - 0.09 in Rain Rain
5:58 AM 57.2 °F 53.6 °F 88% 30.26 in 2.0 mi Variable 6.9 mph - 0.01 in Rain Light Rain
6:02 AM 57.2 °F 53.6 °F 88% 30.26 in 3.0 mi Variable 5.8 mph - 0.01 in Rain Rain
6:56 AM 55.9 °F 52.0 °F 87% 30.00 in 10.0 mi Calm Calm - 0.02 in   Mostly Cloudy
7:56 AM 56.8 °F 50.9 °F 80% 30.02 in 10.0 mi Calm Calm - N/A   Mostly Cloudy
8:56 AM 64.9 °F 52.9 °F 65% 30.02 in 10.0 mi East 3.5 mph - N/A   Clear
9:56 AM 68.9 °F 50.9 °F 53% 30.02 in 10.0 mi SW 8.1 mph - N/A   Clear
10:56 AM 72.0 °F 50.9 °F 47% 30.01 in 10.0 mi SSW 9.2 mph - N/A   Scattered Clouds
11:56 AM 73.9 °F 50.9 °F 44% 30.01 in 10.0 mi SSW 12.7 mph - N/A   Partly Cloudy
12:56 PM 73.9 °F 50.9 °F 44% 29.98 in 10.0 mi WSW 10.4 mph - N/A   Partly Cloudy
1:56 PM 77.0 °F 48.9 °F 37% 29.95 in 10.0 mi South 8.1 mph - N/A   Partly Cloudy
2:56 PM 77.9 °F 48.9 °F 36% 29.94 in 10.0 mi SW 8.1 mph - N/A   Scattered Clouds
3:56 PM 74.8 °F 48.9 °F 40% 29.94 in 10.0 mi WNW 10.4 mph - N/A   Scattered Clouds
4:56 PM 72.9 °F 50.9 °F 46% 29.96 in 10.0 mi NW 6.9 mph - N/A   Scattered Clouds
5:56 PM 72.9 °F 52.0 °F 48% 29.97 in 10.0 mi ENE 6.9 mph - N/A   Scattered Clouds
6:44 PM 71.6 °F 51.8 °F 50% 30.23 in 10.0 mi WSW 4.6 mph - N/A Thunderstorm Partly Cloudy
6:56 PM 70.0 °F 50.9 °F 51% 29.99 in 10.0 mi West 9.2 mph - N/A   Partly Cloudy
7:56 PM 66.9 °F 52.0 °F 59% 29.99 in 10.0 mi NNE 3.5 mph - N/A   Clear
8:56 PM 61.9 °F 54.0 °F 75% 29.98 in 10.0 mi ENE 5.8 mph - N/A   Clear
9:56 PM 59.0 °F 52.0 °F 78% 29.99 in 10.0 mi Calm Calm - N/A   Clear
10:56 PM 56.8 °F 50.9 °F 80% 29.99 in 10.0 mi East 8.1 mph - N/A   Partly Cloudy
11:56 PM 57.9 °F 50.0 °F 75% 29.99 in 10.0 mi East 5.8 mph - N/A   Clear